Project,Study,Ord_Occ,Event_Num,Cast_ID,Date_Time_UTC,Date_Time_PST,Lat_Dec,Lon_Dec,Sta_ID,Line,Sta,Depth,Pressure,PrQ,Temp1,Temp1Q,Temp2,Temp2Q,TempAve,Salt1,Salt1Q,Salt1_Corr,Salt2,Salt2Q,Salt2_Corr,SaltAve_Corr,Ox1,Ox1Q,Ox1_CruiseCorr,Ox1_StaCorr,Ox2,Ox2Q,Ox2_CruiseCorr,Ox2_StaCorr,OxAve_StaCorr,Ox1uM,Ox1uM_CruiseCorr,Ox1uM_StaCorr,Ox2uM,Ox2uM_CruiseCorr,Ox2uM_StaCorr,OxAveuM_StaCorr,FluorV,FluorQ,EstChl_CruiseCorr,EstChl_StaCorr,ISUSV,ISUSQ,EstNO3_CruiseCorr,EstNO3_StaCorr,SigThetaTS1,SigThetaTS1Q,SigThetaTS2,SigThetaTS2Q,BAT,XMiss,TransQ,pH,pHQ,SPAR,SPARQ,PAR,PARQ,PoT1,PoT2,DynHt,SVA,OxSat1,OxSat2,BTL_Depth,BTL_Temp,SaltB,OxB,OxBuM,Chl-a,Phaeo,NO3,NO2,NH4,PO4,SIL
CalCOFI,2007SR,004,5,2007_004d,14-Jul-2020 01:10:56,13-Jul-2020 17:10:56,32.91337,-117.39402,093.3 028.0,093.3,028.0,2.000,2.014,,23.3841,,23.3965,,23.3903,33.7054,,33.7056,33.7038,,33.7054,33.7055,5.7760,,6.0176,6.0741,3.7886,,5.1033,4.1573,5.1157,252.197,262.7803,262.8815,165.420,451.2931,166.6129,214.7472,0.0937,,0.6772,1.1118,0.1632,,0.0000,0.191,22.8416,,22.8368,,0.9502,78.8565,,8.222,,4.9109E+02,,9.6675E+00,,23.3837,23.3961,-0.0003,,117.683,77.206,2,23.558,33.7084,5.855,255.66,1.207,0.083,0.0,0.00,0.08,0.02,0.36
CalCOFI,2007SR,004,5,2007_004d,14-Jul-2020 01:11:14,13-Jul-2020 17:11:14,32.91338,-117.39401,093.3 028.0,093.3,028.0,3.000,3.021,,23.4664,,23.4680,,23.4672,33.7077,,33.7079,33.7071,,33.7087,33.7083,5.7597,,6.0006,6.0567,3.7651,,5.0472,4.1106,5.0837,251.488,262.0402,262.1266,164.397,449.5589,164.8450,213.4858,0.0898,,0.6312,1.0446,0.1564,,0.0000,0.001,22.8195,,22.8186,,0.9423,79.0121,,8.228,,4.7808E+02,,7.4464E+00,,23.4658,23.4674,0.0137,,117.521,76.824,,,,,,,,,,,,
CalCOFI,2007SR,004,5,2007_004d,14-Jul-2020 01:11:15,13-Jul-2020 17:11:15,32.91338,-117.39400,093.3 028.0,093.3,028.0,4.000,4.028,,23.4693,,23.4638,,23.4666,33.7072,,33.7074,33.7063,,33.7079,33.7077,5.8466,,6.0914,6.1497,3.7685,,5.0553,4.1173,5.1335,255.283,266.0018,266.1673,164.547,458.8410,165.1042,215.6358,0.0892,,0.6242,1.0342,0.1552,,0.0000,0.000,22.8184,,22.8193,,0.9438,78.9811,,8.227,,4.7749E+02,,5.9146E+00,,23.4685,23.4630,0.0197,,119.300,76.889,,,,,,,,,,,,
CalCOFI,2007SR,004,5,2007_004d,14-Jul-2020 01:11:17,13-Jul-2020 17:11:17,32.91338,-117.39400,093.3 028.0,093.3,028.0,5.000,5.036,,23.3569,,23.3604,,23.3587,33.6970,,33.6972,33.6957,,33.6973,33.6973,5.8534,,6.0985,6.1570,3.7752,,5.0713,4.1307,5.1439,255.575,266.3066,266.4782,164.835,459.5552,165.6019,216.0401,0.0967,,0.7125,1.1627,0.1563,,0.0000,0.000,22.8432,,22.8413,,0.9514,78.8333,,8.231,,4.8321E+02,,4.6316E+00,,23.3558,23.3594,0.0248,,119.197,76.881,,,,,,,,,,,,
CalCOFI,2007SR,004,5,2007_004d,14-Jul-2020 01:11:20,13-Jul-2020 17:11:20,32.91337,-117.39400,093.3 028.0,093.3,028.0,6.000,6.043,,23.2184,,23.3015,,23.2600,33.7046,,33.7048,33.7054,,33.7070,33.7059,5.8698,,6.1157,6.1746,3.7840,,5.0923,4.1482,5.1614,256.281,267.0436,267.2299,165.215,461.2819,166.2586,216.7443,0.1057,,0.8185,1.3119,0.1602,,0.0000,0.107,22.8891,,22.8657,,0.9598,78.6661,,8.235,,4.8077E+02,,3.4846E+00,,23.2171,23.3002,0.0300,,119.250,76.985,,,,,,,,,,,,
CalCOFI,2007SR,004,5,2007_004d,14-Jul-2020 01:11:23,13-Jul-2020 17:11:23,32.91336,-117.39400,093.3 028.0,093.3,028.0,7.000,7.050,,23.0755,,23.0636,,23.0696,33.6854,,33.6856,33.6794,,33.6810,33.6833,6.0210,,6.2736,6.3366,3.8131,,5.1618,4.2061,5.2714,262.873,273.9250,274.2486,166.478,477.4050,168.4413,221.3450,0.1226,,1.0177,1.5768,0.1657,,0.0000,0.261,22.9156,,22.9145,,0.9831,78.2109,,8.236,,4.7240E+02,,2.8128E+00,,23.0740,23.0622,0.0350,,121.999,77.243,,,,,,,,,,,,
CalCOFI,2007SR,004,5,2007_004d,14-Jul-2020 01:11:24,13-Jul-2020 17:11:24,32.91338,-117.39400,093.3 028.0,093.3,028.0,8.000,8.057,,22.7163,,22.6810,,22.6987,33.6737,,33.6739,33.6674,,33.6690,33.6715,6.1012,,6.3574,6.4225,3.8470,,5.2427,4.2735,5.3480,266.351,277.5557,277.9518,167.943,485.9117,170.9731,224.4625,0.1277,,1.0778,1.6528,0.1682,,0.0000,0.331,23.0094,,23.0146,,0.9918,78.0405,,8.242,,4.7538E+02,,2.1683E+00,,22.7146,22.6794,0.0400,,122.837,77.402,,,,,,,,,,,,
CalCOFI,2007SR,004,5,2007_004d,14-Jul-2020 01:11:26,13-Jul-2020 17:11:26,32.91338,-117.39400,093.3 028.0,093.3,028.0,9.000,9.064,,22.3293,,22.3029,,22.3161,33.6640,,33.6642,33.6613,,33.6629,33.6636,6.3738,,6.6423,6.7145,3.8872,,5.3387,4.3535,5.5340,278.222,289.9478,290.5912,169.678,514.9465,173.9715,232.2814,0.1355,,1.1698,1.7657,0.1701,,0.0000,0.385,23.1113,,23.1168,,0.9906,78.0626,,8.246,,4.8035E+02,,1.7163E+00,,22.3275,22.3011,0.0448,,127.439,77.686,,,,,,,,,,,,
CalCOFI,2007SR,004,5,2007_004d,14-Jul-2020 01:11:28,13-Jul-2020 17:11:28,32.91338,-117.39400,093.3 028.0,093.3,028.0,10.000,10.071,,21.6518,,21.6692,,21.6605,33.6344,,33.6346,33.6289,,33.6305,33.6326,6.6133,,6.8925,6.9710,3.9457,,5.4784,4.4699,5.7205,288.630,300.8128,301.6730,172.207,540.4030,178.3420,240.0075,0.1762,,1.6506,2.2866,0.1716,,0.0000,0.427,23.2771,,23.2681,,1.0244,77.4088,,8.257,,4.8534E+02,,1.3434E+00,,21.6498,21.6673,0.0495,,130.624,77.953,,,,,,,,,,,,
CalCOFI,2007SR,004,5,2007_004d,14-Jul-2020 01:11:30,13-Jul-2020 17:11:30,32.91338,-117.39400,093.3 028.0,093.3,028.0,11.000,11.078,,21.0375,,21.0283,,21.0329,33.6344,,33.6346,33.6351,,33.6367,33.6357,6.2259,,6.4877,6.5560,4.0529,,5.7343,4.6832,5.6196,271.681,283.1197,283.6268,176.855,498.9481,186.3745,235.0007,0.2689,,2.7493,3.0461,0.1720,,0.0000,0.438,23.4450,,23.4479,,1.1193,75.5929,,8.265,,4.7888E+02,,1.0808E+00,,21.0354,21.0262,0.0541,,121.627,79.155,,,,,,,,,,,,
CalCOFI,2007SR,004,5,2007_004d,14-Jul-2020 01:11:33,13-Jul-2020 17:11:33,32.91336,-117.39400,093.3 028.0,093.3,028.0,12.000,12.085,,19.8214,,19.8291,,19.8253,33.5567,,33.5569,33.5213,,33.5229,33.5399,6.0869,,6.3425,6.4071,4.2320,,6.1619,5.0396,5.7234,265.544,276.7133,277.0925,184.628,483.9379,199.8076,238.4501,0.2465,,2.4833,2.9169,0.1704,,0.0000,0.393,23.7060,,23.6766,,1.1227,75.5290,,8.265,,4.7296E+02,,8.6389E-01,,19.8192,19.8269,0.0584,,116.220,80.798,,,,,,,,,,,,
CalCOFI,2007SR,004,5,2007_004d,14-Jul-2020 01:11:35,13-Jul-2020 17:11:35,32.91337,-117.39400,093.3 028.0,093.3,028.0,13.000,13.093,,17.6109,,17.5278,,17.5694,33.5588,,33.5590,33.5441,,33.5457,33.5524,6.3177,,6.5837,6.6544,4.4199,,6.6104,5.4134,6.0339,275.463,287.0677,287.6536,192.716,508.1984,213.7851,250.7194,0.2751,,2.8230,3.0758,0.1693,,0.0000,0.362,24.2639,,24.2726,,1.0927,76.0964,,8.263,,4.8034E+02,,6.9498E-01,,17.6087,17.5256,0.0623,,115.754,80.848,13,17.197,33.6033,6.793,296.15,4.263,0.516,0.0,0.00,0.17,0.14,1.36
CalCOFI,2007SR,004,5,2007_004d,14-Jul-2020 01:11:36,13-Jul-2020 17:11:36,32.91338,-117.39400,093.3 028.0,093.3,028.0,14.000,14.100,,17.1923,,17.1368,,17.1646,33.5622,,33.5624,33.5644,,33.5660,33.5642,6.4171,,6.6875,6.7608,4.4384,,6.6546,5.4502,6.1055,279.769,291.5628,292.2384,193.503,518.7302,215.1452,253.6918,0.2770,,2.8456,3.0843,0.1678,,0.0000,0.320,24.3660,,24.3809,,1.0980,75.9958,,8.253,,4.8451E+02,,6.0266E-01,,17.1900,17.1345,0.0660,,116.634,80.587,,,,,,,,,,,,
CalCOFI,2007SR,004,5,2007_004d,14-Jul-2020 01:11:37,13-Jul-2020 17:11:37,32.91338,-117.39400,093.3 028.0,093.3,028.0,15.000,15.107,,17.0732,,17.1594,,17.1163,33.5865,,33.5867,33.5964,,33.5980,33.5924,6.3879,,6.6570,6.7296,4.4400,,6.6584,5.4534,6.0915,278.486,290.2234,290.8723,193.568,515.5922,215.2575,253.0649,0.2769,,2.8444,3.0839,0.1651,,0.0000,0.244,24.4129,,24.3999,,1.0895,76.1570,,8.242,,4.8215E+02,,5.5029E-01,,17.0707,17.1570,0.0695,,115.855,80.666,,,,,,,,,,,,
CalCOFI,2007SR,004,5,2007_004d,14-Jul-2020 01:11:41,13-Jul-2020 17:11:41,32.91336,-117.39399,093.3 028.0,093.3,028.0,16.000,16.114,,17.1588,,17.3014,,17.2301,33.5779,,33.5781,33.5710,,33.5726,33.5754,5.9003,,6.1475,6.2073,4.5094,,6.8241,5.5915,5.8994,257.237,268.0416,268.2478,196.603,463.6202,220.5025,244.3752,0.2944,,3.0525,3.1510,0.1597,,0.0000,0.093,24.3860,,24.3467,,1.0883,76.1803,,8.226,,4.7593E+02,,3.8955E-01,,17.1561,17.2987,0.0731,,107.188,82.135,,,,,,,,,,,,
CalCOFI,2007SR,004,5,2007_004d,14-Jul-2020 01:11:43,13-Jul-2020 17:11:43,32.91336,-117.39398,093.3 028.0,093.3,028.0,17.000,17.121,,16.2093,,16.1612,,16.1853,33.5443,,33.5445,33.5344,,33.5360,33.5403,6.0788,,6.3340,6.3985,4.6164,,7.0795,5.8044,6.1015,264.967,276.1110,276.4782,201.223,482.5267,228.4866,252.4824,0.3101,,3.2393,3.1933,0.1590,,0.0000,0.073,24.5808,,24.5842,,1.1055,75.8533,,8.219,,4.7885E+02,,1.8612E-01,,16.2066,16.1585,0.0765,,108.389,82.232,,,,,,,,,,,,
CalCOFI,2007SR,004,5,2007_004d,14-Jul-2020 01:11:44,13-Jul-2020 17:11:44,32.91337,-117.39398,093.3 028.0,093.3,028.0,18.000,18.128,,15.6411,,15.6018,,15.6215,33.5467,,33.5469,33.5425,,33.5441,33.5455,6.1420,,6.4001,6.4662,4.6583,,7.1796,5.8878,6.1770,267.688,278.9514,279.3753,203.022,489.1818,231.5956,255.4855,0.2902,,3.0025,3.1368,0.1596,,0.0000,0.090,24.7111,,24.7166,,1.0349,77.2058,,8.214,,4.7988E+02,,5.7011E-02,,15.6383,15.5990,0.0798,,108.304,82.076,,,,,,,,,,,,
CalCOFI,2007SR,004,5,2007_004d,14-Jul-2020 01:11:45,13-Jul-2020 17:11:45,32.91338,-117.39398,093.3 028.0,093.3,028.0,19.000,19.136,,15.4148,,15.3756,,15.3952,33.5454,,33.5456,33.5472,,33.5488,33.5472,6.2089,,6.4700,6.5378,4.6650,,7.1956,5.9011,6.2195,270.591,281.9818,282.4662,203.303,496.2822,232.0812,257.2737,0.2379,,2.3813,2.8581,0.1601,,0.0000,0.104,24.7604,,24.7704,,0.9768,78.3332,,8.209,,4.8038E+02,,2.2845E-03,,15.4119,15.3727,0.0831,,108.995,81.830,,,,,,,,,,,,
CalCOFI,2007SR,004,5,2007_004d,14-Jul-2020 01:11:48,13-Jul-2020 17:11:48,32.91337,-117.39398,093.3 028.0,093.3,028.0,20.000,20.143,,15.2875,,15.3425,,15.3150,33.5536,,33.5538,33.5589,,33.5605,33.5572,5.7819,,6.0238,6.0804,4.7099,,7.3027,5.9904,6.0354,251.974,262.5476,262.6441,205.255,450.7476,235.4546,249.0494,0.2343,,2.3386,2.8320,0.1633,,0.0000,0.194,24.7947,,24.7867,,0.9360,79.1366,,8.191,,4.8189E+02,,1.0000E-12,,15.2845,15.3394,0.0862,,101.241,82.568,,,,,,,,,,,,
CalCOFI,2007SR,004,5,2007_004d,14-Jul-2020 01:11:51,13-Jul-2020 17:11:51,32.91336,-117.39398,093.3 028.0,093.3,028.0,21.000,21.150,,14.4966,,14.4382,,14.4674,33.5193,,33.5195,33.5105,,33.5121,33.5158,5.1379,,5.3509,5.3906,4.8470,,7.6300,6.2632,5.8269,223.875,233.2150,232.7261,211.199,382.0215,245.7269,239.2265,0.2506,,2.5320,2.9432,0.1702,,0.0000,0.387,24.9384,,24.9446,,0.9104,79.6443,,8.164,,4.7563E+02,,1.0000E-12,,14.4935,14.4352,0.0894,,88.537,83.426,,,,,,,,,,,,
CalCOFI,2007SR,004,5,2007_004d,14-Jul-2020 01:11:53,13-Jul-2020 17:11:53,32.91336,-117.39398,093.3 028.0,093.3,028.0,22.000,22.157,,13.9015,,13.8607,,13.8811,33.5407,,33.5409,33.5317,,33.5333,33.5371,5.0501,,5.2591,5.2966,4.8833,,7.7167,6.3355,5.8161,220.019,229.1897,228.6205,212.754,372.5902,248.4142,238.5174,0.2932,,3.0382,3.1471,0.1746,,0.0000,0.511,25.0805,,25.0820,,0.8932,79.9886,,8.148,,4.7795E+02,,1.0000E-12,,13.8983,13.8575,0.0923,,85.999,83.087,22,13.657,33.5500,5.402,235.34,2.134,0.217,0.35,0.088,0.18,0.43,4.07
CalCOFI,2007SR,004,5,2007_004d,14-Jul-2020 01:11:54,13-Jul-2020 17:11:54,32.91336,-117.39398,093.3 028.0,093.3,028.0,23.000,23.164,,13.5327,,13.4847,,13.5087,33.5361,,33.5363,33.5391,,33.5407,33.5385,5.0249,,5.2328,5.2696,4.9029,,7.7635,6.3745,5.8221,218.907,228.0289,227.4365,213.587,369.8705,249.8538,238.6452,0.2457,,2.4738,2.9117,0.1797,,0.0000,0.654,25.1526,,25.1647,,0.8560,80.7361,,8.129,,4.8124E+02,,1.0000E-12,,13.5295,13.4815,0.0952,,84.929,82.785,,,,,,,,,,,,
CalCOFI,2007SR,004,5,2007_004d,14-Jul-2020 01:11:56,13-Jul-2020 17:11:56,32.91336,-117.39398,093.3 028.0,093.3,028.0,24.000,24.172,,13.4062,,13.4023,,13.4043,33.5421,,33.5423,33.5477,,33.5493,33.5458,4.8063,,5.0044,5.0354,4.9191,,7.8022,6.4067,5.7211,209.375,218.0785,217.2874,214.289,346.5565,251.0669,234.1772,0.2078,,2.0245,2.6121,0.1896,,0.0000,0.931,25.1830,,25.1880,,0.8309,81.2438,,8.108,,4.8337E+02,,1.0000E-12,,13.4029,13.3990,0.0980,,81.027,82.924,,,,,,,,,,,,
CalCOFI,2007SR,004,5,2007_004d,14-Jul-2020 01:11:58,13-Jul-2020 17:11:58,32.91336,-117.39398,093.3 028.0,093.3,028.0,25.000,25.179,,13.1334,,13.1173,,13.1254,33.5276,,33.5278,33.5285,,33.5301,33.5290,4.5447,,4.7311,4.7552,4.9393,,7.8504,6.4469,5.6011,197.974,206.1770,205.1484,215.163,318.6713,252.5774,228.8629,0.1623,,1.4863,2.1215,0.2124,,0.0000,1.571,25.2263,,25.2302,,0.7796,82.2925,,8.083,,4.7937E+02,,1.0000E-12,,13.1300,13.1138,0.1008,,76.182,82.769,,,,,,,,,,,,
CalCOFI,2007SR,004,5,2007_004d,14-Jul-2020 01:12:01,13-Jul-2020 17:12:01,32.91336,-117.39398,093.3 028.0,093.3,028.0,26.000,26.186,,12.7344,,12.7346,,12.7345,33.5300,,33.5302,33.5343,,33.5359,33.5331,4.4936,,4.6777,4.7005,4.9481,,7.8714,6.4644,5.5825,195.731,203.8355,202.7602,215.526,313.1853,253.2047,227.9825,0.1230,,1.0224,1.5828,0.2412,,0.0000,2.378,25.3072,,25.3105,,0.7430,83.0478,,8.060,,4.7793E+02,,1.0000E-12,,12.7309,12.7311,0.1035,,74.707,82.266,,,,,,,,,,,,
CalCOFI,2007SR,004,5,2007_004d,14-Jul-2020 01:12:03,13-Jul-2020 17:12:03,32.91336,-117.39398,093.3 028.0,093.3,028.0,27.000,27.193,,12.6701,,12.6527,,12.6614,33.5339,,33.5341,33.5371,,33.5387,33.5364,4.4256,,4.6066,4.6276,4.9174,,7.7981,6.4033,5.5155,192.767,200.7414,199.6043,214.188,305.9357,250.8924,225.2484,0.1180,,0.9634,1.5066,0.2700,,0.0000,3.186,25.3227,,25.3286,,0.7160,83.6104,,8.044,,4.7922E+02,,1.0000E-12,,12.6665,12.6491,0.1061,,73.481,81.619,,,,,,,,,,,,
CalCOFI,2007SR,004,5,2007_004d,14-Jul-2020 01:12:04,13-Jul-2020 17:12:04,32.91336,-117.39398,093.3 028.0,093.3,028.0,28.000,28.200,,12.5756,,12.5526,,12.5641,33.5373,,33.5375,33.5416,,33.5432,33.5404,4.3909,,4.5704,4.5905,4.8843,,7.7191,6.3375,5.4640,191.249,199.1567,197.9881,212.741,302.2229,248.3917,223.1899,0.1106,,0.8762,1.3907,0.2964,,0.0000,3.926,25.3438,,25.3516,,0.7188,83.5522,,8.031,,4.8296E+02,,1.0000E-12,,12.5719,12.5489,0.1088,,72.762,80.903,,,,,,,,,,,,
CalCOFI,2007SR,004,5,2007_004d,14-Jul-2020 01:12:06,13-Jul-2020 17:12:06,32.91336,-117.39398,093.3 028.0,093.3,028.0,29.000,29.208,,12.4957,,12.4805,,12.4881,33.5442,,33.5444,33.5495,,33.5511,33.5478,4.4050,,4.5851,4.6056,4.8537,,7.6460,6.2766,5.4411,191.862,199.7966,198.6408,211.404,303.7222,246.0812,222.3610,0.1123,,0.8963,1.4177,0.3227,,0.0000,4.664,25.3646,,25.3717,,0.7051,83.8390,,8.020,,4.8318E+02,,1.0000E-12,,12.4919,12.4767,0.1114,,72.879,80.280,,,,,,,,,,,,
CalCOFI,2007SR,004,5,2007_004d,14-Jul-2020 01:12:08,13-Jul-2020 17:12:08,32.91336,-117.39398,093.3 028.0,093.3,028.0,30.000,30.215,,12.4829,,12.5431,,12.5130,33.5521,,33.5523,33.5509,,33.5525,33.5524,4.3238,,4.5002,4.5186,4.8106,,7.5431,6.1908,5.3547,188.324,196.1033,194.8737,209.529,295.0688,242.8408,218.8573,0.1130,,0.9045,1.4287,0.3711,,0.1809,6.021,25.3732,,25.3607,,0.7070,83.7996,,8.007,,4.7812E+02,,1.0000E-12,,12.4790,12.5391,0.1141,,71.520,79.671,,,,,,,,,,,,
CalCOFI,2007SR,004,5,2007_004d,14-Jul-2020 01:12:11,13-Jul-2020 17:12:11,32.91336,-117.39398,093.3 028.0,093.3,028.0,31.000,31.222,,12.3566,,12.3445,,12.3506,33.5460,,33.5462,33.5479,,33.5495,33.5479,4.2334,,4.4058,4.4218,4.7653,,7.4350,6.1007,5.2613,184.380,191.9862,190.6744,207.545,285.4223,239.4121,215.0433,0.1115,,0.8868,1.4050,0.4115,,1.3153,7.153,25.3929,,25.3967,,0.7022,83.8993,,7.998,,4.8157E+02,,1.0000E-12,,12.3526,12.3404,0.1167,,69.837,78.592,,,,,,,,,,,,
CalCOFI,2007SR,004,5,2007_004d,14-Jul-2020 01:12:12,13-Jul-2020 17:12:12,32.91336,-117.39398,093.3 028.0,093.3,028.0,32.000,32.229,,12.3056,,12.2931,,12.2994,33.5557,,33.5559,33.5611,,33.5627,33.5593,4.2162,,4.3878,4.4033,4.7288,,7.3479,6.0281,5.2157,183.628,191.2012,189.8737,205.955,283.5830,236.6644,213.2691,0.0899,,0.6324,1.0464,0.4276,,1.7674,7.605,25.4102,,25.4168,,0.6970,84.0083,,7.991,,4.8233E+02,,1.0000E-12,,12.3014,12.2889,0.1193,,69.483,77.914,,,,,,,,,,,,
CalCOFI,2007SR,004,5,2007_004d,14-Jul-2020 01:12:14,13-Jul-2020 17:12:14,32.91336,-117.39398,093.3 028.0,093.3,028.0,33.000,33.237,,12.2831,,12.2768,,12.2800,33.5614,,33.5616,33.5661,,33.5677,33.5647,4.2071,,4.3783,4.3936,4.6927,,7.2617,5.9562,5.1749,183.233,190.7888,189.4532,204.378,282.6169,233.9390,211.6961,0.0844,,0.5677,0.9499,0.4433,,2.2083,8.045,25.4189,,25.4238,,0.7094,83.7505,,7.983,,4.7950E+02,,1.0000E-12,,12.2788,12.2725,0.1218,,69.304,77.295,33,12.297,33.5516,,191.40,0.479,0.319,8.83,0.232,0.21,0.90,9.13
CalCOFI,2007SR,004,5,2007_004d,14-Jul-2020 01:12:16,13-Jul-2020 17:12:16,32.91336,-117.39398,093.3 028.0,093.3,028.0,34.000,34.244,,12.2551,,12.2747,,12.2649,33.5661,,33.5663,33.5697,,33.5713,33.5688,4.1766,,4.3464,4.3609,4.6455,,7.1490,5.8623,5.1116,181.902,189.3994,188.0360,202.325,279.3615,230.3911,209.2136,0.0861,,0.5877,0.9799,0.4650,,2.8176,8.654,25.4280,,25.4270,,0.7000,83.9479,,7.974,,4.8133E+02,,1.0000E-12,,12.2506,12.2703,0.1244,,68.764,76.517,,,,,,,,,,,,
CalCOFI,2007SR,004,5,2007_004d,14-Jul-2020 01:12:19,13-Jul-2020 17:12:19,32.91334,-117.39398,093.3 028.0,093.3,028.0,35.000,35.251,,12.1794,,12.1734,,12.1764,33.5639,,33.5641,33.5663,,33.5679,33.5660,4.1631,,4.3323,4.3465,4.5929,,7.0234,5.7577,5.0521,181.312,188.7835,187.4078,200.027,277.9184,226.4197,206.9138,0.0888,,0.6195,1.0272,0.4837,,3.3427,9.178,25.4407,,25.4437,,0.6830,84.3028,,7.967,,4.8155E+02,,1.0000E-12,,12.1749,12.1688,0.1270,,68.432,75.487,,,,,,,,,,,,
CalCOFI,2007SR,004,5,2007_004d,14-Jul-2020 01:12:21,13-Jul-2020 17:12:21,32.91334,-117.39398,093.3 028.0,093.3,028.0,36.000,36.259,,12.1357,,12.1249,,12.1303,33.5658,,33.5660,33.5695,,33.5711,33.5686,4.1630,,4.3322,4.3464,4.5597,,6.9442,5.6916,5.0190,181.305,188.7762,187.4003,198.583,277.9013,223.9243,205.6623,0.0847,,0.5712,0.9552,0.4943,,3.6403,9.475,25.4505,,25.4554,,0.6856,84.2481,,7.962,,4.7679E+02,,1.0000E-12,,12.1311,12.1202,0.1295,,68.368,74.869,,,,,,,,,,,,
CalCOFI,2007SR,004,5,2007_004d,14-Jul-2020 01:12:22,13-Jul-2020 17:12:22,32.91334,-117.39398,093.3 028.0,093.3,028.0,37.000,37.266,,12.1014,,12.0892,,12.0953,33.5639,,33.5641,33.5664,,33.5680,33.5661,4.1496,,4.3182,4.3320,4.5179,,6.8444,5.6084,4.9702,180.723,188.1686,186.7807,196.761,276.4778,220.7755,203.7781,0.0823,,0.5430,0.9125,0.5032,,3.8903,9.725,25.4555,,25.4598,,0.6847,84.2684,,7.956,,4.8011E+02,,1.0000E-12,,12.0966,12.0844,0.1321,,68.099,74.125,,,,,,,,,,,,
CalCOFI,2007SR,004,5,2007_004d,14-Jul-2020 01:12:24,13-Jul-2020 17:12:24,32.91336,-117.39398,093.3 028.0,093.3,028.0,38.000,38.273,,12.0518,,12.0435,,12.0477,33.5649,,33.5651,33.5690,,33.5706,33.5679,4.1443,,4.3127,4.3263,4.4792,,6.7520,5.5314,4.9289,180.487,187.9223,186.5294,195.070,275.9006,217.8532,202.1913,0.0835,,0.5571,0.9339,0.5129,,4.1626,9.997,25.4658,,25.4705,,0.6808,84.3493,,7.953,,4.8514E+02,,1.0000E-12,,12.0469,12.0386,0.1346,,67.941,73.420,,,,,,,,,,,,
CalCOFI,2007SR,004,5,2007_004d,14-Jul-2020 01:12:26,13-Jul-2020 17:12:26,32.91335,-117.39398,093.3 028.0,093.3,028.0,39.000,39.280,,12.0152,,12.0239,,12.0196,33.5676,,33.5678,33.5736,,33.5752,33.5715,4.1270,,4.2946,4.3078,4.4418,,6.6627,5.4570,4.8824,179.732,187.1341,185.7255,193.444,274.0540,215.0432,200.3844,0.0858,,0.5842,0.9747,0.5262,,4.5361,10.370,25.4747,,25.4777,,0.6792,84.3832,,7.947,,4.8305E+02,,1.0000E-12,,12.0102,12.0189,0.1371,,67.606,72.780,,,,,,,,,,,,
CalCOFI,2007SR,004,5,2007_004d,14-Jul-2020 01:12:29,13-Jul-2020 17:12:29,32.91334,-117.39398,093.3 028.0,093.3,028.0,40.000,40.288,,11.9535,,11.9766,,11.9651,33.5691,,33.5693,33.5703,,33.5719,33.5706,4.0615,,4.2262,4.2376,4.3968,,6.5553,5.3675,4.8026,176.877,184.1538,182.6857,191.481,267.0711,211.6508,197.1683,0.0927,,0.6654,1.0947,0.5478,,5.1426,10.975,25.4875,,25.4842,,0.6814,84.3378,,7.943,,4.7788E+02,,1.0000E-12,,11.9484,11.9715,0.1397,,66.448,71.969,,,,,,,,,,,,
CalCOFI,2007SR,004,5,2007_004d,14-Jul-2020 01:12:31,13-Jul-2020 17:12:31,32.91334,-117.39398,093.3 028.0,093.3,028.0,41.000,41.295,,11.9005,,11.8806,,11.8906,33.5711,,33.5713,33.5729,,33.5745,33.5729,3.9387,,4.0978,4.1061,4.3766,,6.5071,5.3273,4.7167,171.527,178.5689,176.9894,190.599,253.9857,210.1265,193.5580,0.0807,,0.5241,0.8838,0.5625,,5.5554,11.387,25.4990,,25.5042,,0.6769,84.4308,,7.938,,4.8007E+02,,1.0000E-12,,11.8952,11.8754,0.1422,,64.368,71.496,,,,,,,,,,,,
CalCOFI,2007SR,004,5,2007_004d,14-Jul-2020 01:12:32,13-Jul-2020 17:12:32,32.91334,-117.39398,093.3 028.0,093.3,028.0,42.000,42.302,,11.7973,,11.7688,,11.7831,33.5739,,33.5741,33.5762,,33.5778,33.5760,3.9174,,4.0756,4.0833,4.3534,,6.4517,5.2811,4.6822,170.599,177.6002,176.0013,189.585,251.7160,208.3742,192.1878,0.0779,,0.4912,0.8332,0.5746,,5.8952,11.727,25.5205,,25.5277,,0.6783,84.4026,,7.935,,4.8271E+02,,1.0000E-12,,11.7920,11.7635,0.1447,,63.883,70.951,42,11.834,,,151.83,,,,,,,
CalCOFI,2007SR,004,5,2007_004d,14-Jul-2020 01:12:34,13-Jul-2020 17:12:34,32.91334,-117.39398,093.3 028.0,093.3,028.0,43.000,43.310,,11.6170,,11.5999,,11.6085,33.5989,,33.5991,33.6027,,33.6043,33.6017,3.9716,,4.1322,4.1413,4.3327,,6.4023,5.2399,4.6906,172.950,180.0544,178.5045,188.671,257.4662,206.7946,192.6496,0.0708,,0.4077,0.7024,0.5884,,6.2827,12.114,25.5734,,25.5795,,0.6748,84.4751,,7.927,,4.8509E+02,,1.0000E-12,,11.6116,11.5945,0.1471,,64.531,70.373,,,,,,,,,,,,
CalCOFI,2007SR,004,5,2007_004d,14-Jul-2020 01:12:37,13-Jul-2020 17:12:37,32.91334,-117.39398,093.3 028.0,093.3,028.0,44.000,44.317,,11.6183,,11.6562,,11.6373,33.5965,,33.5967,33.5964,,33.5980,33.5974,3.8703,,4.0264,4.0328,4.3070,,6.3409,5.1888,4.6108,168.539,175.4498,173.8080,187.558,246.6775,204.8712,189.3396,0.0840,,0.5630,0.9428,0.6187,,7.1335,12.963,25.5713,,25.5643,,0.6833,84.2968,,7.919,,4.8129E+02,,1.0000E-12,,11.6127,11.6506,0.1495,,62.885,70.038,,,,,,,,,,,,
CalCOFI,2007SR,004,5,2007_004d,14-Jul-2020 01:12:39,13-Jul-2020 17:12:39,32.91334,-117.39398,093.3 028.0,093.3,028.0,45.000,45.324,,11.3400,,11.3086,,11.3243,33.5987,,33.5989,33.5992,,33.6008,33.5999,3.7920,,3.9446,3.9490,4.2988,,6.3213,5.1725,4.5608,165.122,171.8828,170.1698,187.185,238.3200,204.2266,187.1982,0.0706,,0.4053,0.6987,0.6474,,7.9394,13.768,25.6241,,25.6302,,0.6705,84.5662,,7.914,,4.7982E+02,,1.0000E-12,,11.3344,11.3030,0.1520,,61.252,69.391,,,,,,,,,,,,
CalCOFI,2007SR,004,5,2007_004d,14-Jul-2020 01:12:41,13-Jul-2020 17:12:41,32.91334,-117.39398,093.3 028.0,093.3,028.0,46.000,46.331,,11.1564,,11.1363,,11.1464,33.6218,,33.6220,33.6257,,33.6273,33.6247,3.7849,,3.9371,3.9413,4.2863,,6.2915,5.1476,4.5445,164.804,171.5508,169.8312,186.634,237.5422,203.2743,186.5528,0.0592,,0.2713,0.4812,0.6613,,8.3297,14.158,25.6753,,25.6820,,0.6653,84.6773,,7.908,,4.7988E+02,,1.0000E-12,,11.1508,11.1306,0.1543,,60.908,68.948,,,,,,,,,,,,
CalCOFI,2007SR,004,5,2007_004d,14-Jul-2020 01:12:42,13-Jul-2020 17:12:42,32.91334,-117.39398,093.3 028.0,093.3,028.0,47.000,47.339,,11.0769,,11.0650,,11.0710,33.6329,,33.6331,33.6379,,33.6395,33.6363,3.7769,,3.9288,3.9328,4.2632,,6.2363,5.1016,4.5172,164.450,171.1813,169.4543,185.621,236.6764,201.5237,185.4890,0.0612,,0.2948,0.5200,0.6754,,8.7256,14.553,25.6983,,25.7043,,0.6887,84.1855,,7.902,,4.8042E+02,,1.0000E-12,,11.0712,11.0593,0.1566,,60.680,68.477,,,,,,,,,,,,
CalCOFI,2007SR,004,5,2007_004d,14-Jul-2020 01:12:44,13-Jul-2020 17:12:44,32.91334,-117.39398,093.3 028.0,093.3,028.0,48.000,48.346,,11.0376,,11.0358,,11.0367,33.6428,,33.6430,33.6463,,33.6479,33.6455,3.7537,,3.9045,3.9079,4.2298,,6.1566,5.0352,4.4716,163.439,170.1259,168.3778,184.165,234.2036,199.0075,183.6927,0.0632,,0.3183,0.5586,0.6917,,9.1833,15.010,25.7130,,25.7161,,0.6694,84.5898,,7.896,,4.8176E+02,,1.0000E-12,,11.0318,11.0300,0.1589,,60.261,67.902,,,,,,,,,,,,
CalCOFI,2007SR,004,5,2007_004d,14-Jul-2020 01:12:47,13-Jul-2020 17:12:47,32.91334,-117.39398,093.3 028.0,093.3,028.0,49.000,49.353,,11.0009,,11.0013,,11.0011,33.6511,,33.6513,33.6535,,33.6551,33.6532,3.7254,,3.8750,3.8776,4.1928,,6.0683,4.9616,4.4196,162.205,168.8377,167.0639,182.552,231.1854,196.2199,181.6419,0.0581,,0.2584,0.4598,0.7078,,9.6354,15.462,25.7261,,25.7278,,0.6642,84.6997,,7.890,,4.7909E+02,,1.0000E-12,,10.9950,10.9954,0.1612,,59.763,67.262,,,,,,,,,,,,